Weather History for KCRE - February, 2012

Change the Weather History Date:

Friday, February 10, 2012

  Actual Average Record
Temperature  
Mean Temperature 45 °F 47 °F  
Max Temperature 57 °F 56 °F 76 °F (1950)
Min Temperature 33 °F 38 °F 20 °F (1989)
Degree Days  
Heating Degree Days 20 18  
Month to date heating degree days 123 185  
Since 1 July heating degree days 1321 1653  
Cooling Degree Days 0 0  
Month to date cooling degree days 0 0  
Year to date cooling degree days 0 0  
Moisture  
Dew Point 42 °F    
Average Humidity 83    
Maximum Humidity 100    
Minimum Humidity 66    
Precipitation  
Precipitation 0.11 in 0.11 in 0.60 in (2003)
Month to date precipitation 0.17 1.11  
Year to date precipitation 1.41 4.80  
Sea Level Pressure  
Sea Level Pressure 30.10 in    
Wind  
Wind Speed 4 mph (NE)    
Max Wind Speed 9 mph    
Max Gust Speed 13 mph    
Visibility 8 miles    
Events Rain    
T = Trace of Precipitation, MM = Missing Value Source: NWS Daily Summary

Daily Weather History Graph

Daily Weather History Graph

Search for Another Location

Airport or City:

Trip Planner

Search our weather history database for the weather conditions in past years. The results will help you decide how hot, cold, wet, or windy it might be!

Date:

Astronomy

Feb. 10, 2012 Rise Set
Actual Time 7:04 AM EST 5:54 PM EST
Civil Twilight 6:38 AM EST 6:19 PM EST
Nautical Twilight 6:09 AM EST 6:49 PM EST
Astronomical Twilight 5:40 AM EST 7:18 PM EST
Moon 9:16 PM EST (2/10) 8:24 AM EST (2/10)
Length of Visible Light 11h 40m
Length of Day
10h 49m
Waning Gibbous, 90% of the Moon is Illuminated
Feb 10
Waning Gibbous
Feb 14
Last Quarter
Feb 21
New
Feb 29
First Quarter
Mar 8
Full

Hourly Weather History & Observations

Time (EST) Temp. Windchill Dew Point Humidity Pressure Visibility Wind Dir Wind Speed Gust Speed Precip Events Conditions
12:53 AM 35.1 °F - 33.1 °F 92% 30.23 in 7.0 mi Calm Calm - N/A   Clear
1:53 AM 34.0 °F - 33.1 °F 96% 30.23 in 6.0 mi Calm Calm - N/A   Partly Cloudy
2:53 AM 34.0 °F 31.0 °F 32.0 °F 92% 30.21 in 6.0 mi ENE 3.5 mph - N/A   Partly Cloudy
3:53 AM 34.0 °F 31.0 °F 32.0 °F 92% 30.19 in 5.0 mi NE 3.5 mph - N/A   Mostly Cloudy
4:53 AM 37.0 °F 34.5 °F 35.1 °F 93% 30.19 in 9.0 mi NNE 3.5 mph - N/A   Mostly Cloudy
5:53 AM 42.1 °F 40.2 °F 37.9 °F 85% 30.19 in 10.0 mi NE 3.5 mph - N/A   Overcast
6:53 AM 43.0 °F 41.3 °F 39.0 °F 86% 30.18 in 10.0 mi NNE 3.5 mph - N/A   Overcast
7:51 AM 46.4 °F 44.3 °F 41.0 °F 81% 30.18 in 8.0 mi NNE 4.6 mph - N/A   Overcast
7:53 AM 46.0 °F 43.9 °F 41.0 °F 83% 30.19 in 8.0 mi NE 4.6 mph - N/A   Overcast
8:35 AM 48.2 °F - 42.8 °F 82% 30.20 in 8.0 mi Calm Calm - N/A   Overcast
8:53 AM 48.9 °F - 43.0 °F 80% 30.21 in 8.0 mi Calm Calm - N/A   Overcast
9:53 AM 53.1 °F - 44.1 °F 71% 30.19 in 10.0 mi East 6.9 mph - N/A   Mostly Cloudy
10:53 AM 55.0 °F - 45.0 °F 69% 30.18 in 10.0 mi ESE 6.9 mph - N/A   Mostly Cloudy
11:53 AM 55.9 °F - 45.0 °F 67% 30.14 in 10.0 mi East 6.9 mph - 0.00 in   Mostly Cloudy
12:53 PM 55.0 °F - 45.0 °F 69% 30.10 in 10.0 mi East 3.5 mph - N/A   Overcast
1:53 PM 55.0 °F - 45.0 °F 69% 30.04 in 10.0 mi ENE 5.8 mph - 0.00 in   Overcast
2:53 PM 55.9 °F - 45.0 °F 67% 30.03 in 10.0 mi NE 5.8 mph - N/A   Overcast
3:53 PM 54.0 °F - 46.0 °F 75% 30.01 in 4.0 mi NE 5.8 mph - 0.02 in Rain Rain
4:53 PM 52.0 °F - 48.9 °F 89% 30.00 in 4.0 mi Calm Calm - 0.08 in Rain Light Rain
5:53 PM 52.0 °F - 48.0 °F 86% 29.99 in 8.0 mi NNE 5.8 mph - 0.01 in   Overcast
6:09 PM 51.8 °F - 48.2 °F 88% 29.99 in 10.0 mi North 5.8 mph - N/A   Overcast
6:53 PM 51.1 °F - 46.0 °F 83% 30.00 in 10.0 mi North 5.8 mph - N/A   Overcast
7:53 PM 50.0 °F - 46.0 °F 86% 29.97 in 9.0 mi NNE 5.8 mph - N/A   Overcast
8:53 PM 50.0 °F - 46.0 °F 86% 29.95 in 8.0 mi NNE 5.8 mph - N/A   Overcast
9:53 PM 50.0 °F - 46.0 °F 86% 29.94 in 9.0 mi NNE 3.5 mph - N/A   Overcast
10:53 PM 51.1 °F - 46.0 °F 83% 29.90 in 9.0 mi NE 4.6 mph - N/A   Overcast
11:53 PM 50.0 °F - 46.9 °F 89% 29.88 in 7.0 mi Calm Calm - N/A   Overcast